JO-97
1 43803U 18099AX  24333.43645619  .00024318  00000-0  13527-2 0  9996
2 43803  97.4995  28.8888 0009773  97.1607 263.0736 15.13616420327481
Suomi 100
1 43804U 18099AY  24333.40247551  .00020214  00000-0  11697-2 0  9994
2 43804  97.5055  28.5486 0015326  98.0314 262.2656 15.12176891327447
ISAT
1 43879U 18111D   24333.51808964  .00032499  00000-0  15579-2 0  9995
2 43879  97.6064 239.1299 0012287 140.4764 219.7368 15.18775527324289
UWE-4
1 43880U 18111E   24332.53053763  .00026577  00000-0  13507-2 0  9996
2 43880  97.5996 237.6559 0014913 156.3694 203.8227 15.16745481324127
Sparrow
1 43881U 18111F   24333.49064742  .00033510  00000-0  15738-2 0  9995
2 43881  97.6180 241.3651 0007950 174.5887 185.5434 15.19517930324358
Prox-1
1 44339U 19036A   24333.43288252  .00024288  00000-0  36475-2 0  9992
2 44339  23.9987 244.1585 0007730  36.3886 323.7134 14.73074216289437
SONATE
1 44400U 19038Q   24333.58375781  .00060867  00000-0  11333-2 0  9992
2 44400  97.7127 336.5875 0009517 228.7188 131.3243 15.48602697299388
Taurus 1
1 44530U 19059C   24333.78402345  .00021525  00000-0  44209-2 0  9994
2 44530  98.5890  99.0286 0010586 266.9010  93.0978 14.60600238275746
Duchifat 3
1 44854U 19089C   24333.76731967  .00046497  00000-0  16855-2 0  9990
2 44854  36.9497 122.7074 0010924  35.8645 324.2837 15.27352230273275
TO-108
1 44881U 19093C   24333.81066342  .00003828  00000-0  45697-3 0  9997
2 44881  97.8154  47.3913 0014957 139.9185 220.3136 14.84745943267461
FloripaSat 1
1 44885U 19093G   24333.79217511  .00016541  00000-0  15375-2 0  9999
2 44885  97.8325  55.4523 0012458 126.8707 233.3657 14.94370002267914
RS-44
1 44909U 19096E   24333.37024418  .00000047  00000-0  14147-3 0  9996
2 44909  82.5223 355.6768 0217974  27.6350 333.6138 12.79736369229972
UPMSat 2
1 46276U 20061E   24333.75430097  .00048535  00000-0  10090-2 0  9991
2 46276  97.2760  39.0283 0000287 188.8101 171.3143 15.45502360235480
AmicalSat
1 46287U 20061R   24332.46135586  .00231527  00000-0  18940-2 0  9992
2 46287  97.3218  42.3132 0002086 292.5784  67.5257 15.69833807234839
SALSAT
1 46495U 20068K   24333.65248292  .00017263  00000-0  85534-3 0  9994
2 46495  97.8381 297.7755 0014869 105.6596 254.6278 15.17734836229213
IDEASSat
1 47458U 21006AX  24333.57248804  .00708442  21333-3  18936-2 0  9999
2 47458  97.2937  37.2657 0004338 297.5495  62.5340 15.94507043214179
CubeSX-Sirius-HSE
1 47951U 21022V   24333.86038622  .00069338  00000-0  16721-2 0  9991
2 47951  97.4409 233.0964 0006730 280.0599  79.9888 15.40954354203786
CubeSX-HSE
1 47952U 21022W   24333.79334459  .00071502  00000-0  17027-2 0  9997
2 47952  97.4407 233.1686 0006683 277.1947  82.8540 15.41326925203784
KSU-Cubesat
1 47954U 21022Y   24333.47014738  .00113234  00000-0  20236-2 0  9994
2 47954  97.4413 235.3698 0003931 264.3620  95.7183 15.49607409203614
GRBAlpha
1 47959U 21022AD  24333.81629153  .00076572  00000-0  18232-2 0  9996
2 47959  97.4407 233.3601 0006679 277.6860  82.3628 15.41308552202613
Orbicraft-Zorkiy
1 47960U 21022AE  24333.80409710  .00092817  00000-0  18473-2 0  9999
2 47960  97.4451 235.5022 0004680 272.7187  87.3527 15.46577267203411
TUBIN
1 48900U 21059X   24333.74629342  .00045615  00000-0  10949-2 0  9996
2 48900  97.6611 124.5703 0005320 223.0721 137.0109 15.41216923190164
LEDSAT
1 49069U 21073D   24333.63239606  .00050698  00000-0  13967-2 0  9997
2 49069  97.4186  44.6830 0015496  60.9932 299.2863 15.36852752181591
CUTE
1 49263U 21088D   24332.70473837  .00057028  00000-0  17844-2 0  9994
2 49263  97.4777  38.7281 0010615 221.4430 138.6008 15.32872283174565
TeikyoSat 4
1 49396U 21102B   24333.72003264  .00006314  00000-0  43534-3 0  9992
2 49396  97.4397  12.9904 0014542  76.2067 284.0778 15.06075752167504
Z-Sat
1 49399U 21102E   24333.83934189  .00009870  00000-0  58418-3 0  9993
2 49399  97.4105  15.1834 0020575  54.4219 305.8925 15.11447149167832
KOSEN 1
1 49402U 21102H   24333.55500039  .00015681  00000-0  82068-3 0  9995
2 49402  97.4016  17.0640 0018217  36.6325 323.6150 15.15772636168008
HO-113
1 50466U 21131B   24333.88083391  .00001983  00000-0  63964-3 0  9996
2 50466  98.5222  58.1850 0004052   9.5305 350.5960 14.40295636153705
IRIS-A
1 51044U 22002BN  24333.44629469  .00068785  00000-0  13798-2 0  9993
2 51044  97.3632  40.6313 0004724 159.4713 200.6727 15.46446982159660
Planetum 1
1 52738U 22057G   24333.65579122  .05368615  25621-5  14475-2 0  9991
2 52738  97.5545 110.5066 0010110 292.3147  67.7073 16.28123814140205
Foresail-1
1 52766U 22057AL  24333.28134018  .00067844  00000-0  13494-2 0  9996
2 52766  97.5966 104.3371 0007676 265.2202  94.8171 15.46680133139677
SNUGLITE 2
1 52899U 22065F   24333.37981440  .00004455  00000-0  89483-3 0  9992
2 52899  98.1410 111.7161 0007614   7.0439 353.0868 14.62117292128242
IO-117
1 53106U 22080B   24331.77042742 -.00000003  00000-0  00000-0 0  9997
2 53106  70.1300 136.0386 0008362  70.8561 289.3004  6.42557781 55710
FO-118
1 54684U 22167C   24333.88530690  .00131402  00000-0  20304-2 0  9991
2 54684  97.6141 125.0702 0008756 279.6279  80.3984 15.53598741109631
SSS-2B
1 56184U 23054G   24333.85142551  .00400730  00000-0  18782-2 0  9996
2 56184  97.3393 236.2488 0004372  94.6601 265.5167 15.82163425 91712
SO-120
1 56992U 23084BU  24333.78731080  .00165626  00000-0  24088-2 0  9997
2 56992  97.5376  97.5368 0005600 179.4373 180.6888 15.55170276 81482
MRC-100
1 56993U 23084BV  24333.31772027  .00312283  00000-0  27715-2 0  9996
2 56993  97.5339  98.6511 0003983 217.0466 143.0520 15.67584382 81529
UmKA 1 (RS40S)
1 57172U 23091G   24333.88897901  .00013732  00000-0  81422-3 0  9998
2 57172  97.5905  24.4641 0014301 279.5179  80.4435 15.11398279 78330
CubeBel-2 (EU11S)
1 57175U 23091K   24333.83584899  .00020756  00000-0  11608-2 0  9997
2 57175  97.5902  24.6763 0012647 291.6036  68.3847 15.13430619 78345
VERONIKA
1 58261U 23174F   24333.76579944  .00064834  00000-0  18920-2 0  9992
2 58261  97.4433  48.2367 0009156  22.5610 337.6034 15.35060940 58823
KAFASAT
1 58317U 23174BP  24333.47772183  .00100149  00000-0  21593-2 0  9992
2 58317  97.4363  49.7079 0007401 350.0143  10.0957 15.44177170 58914
ENSO
1 58470U 23185J   24333.83652331  .00048440  00000-0  14308-2 0  9997
2 58470  97.4059  39.7738 0010643  58.5144 301.7138 15.34745022 55284
EIRSAT-1
1 58472U 23185L   24333.81299885  .00060024  00000-0  16509-2 0  9995
2 58472  97.4050  40.0751 0009808  57.6615 302.5577 15.36932192 55308
SONATE-2
1 59112U 24043Q   24333.29635172  .00030025  00000-0  11627-2 0  9990
2 59112  97.4946  96.3086 0013666  80.3690 279.9091 15.26037009 40766
MO-122
1 60209U 24125G   24332.55394218  .00028191  00000-0  10862-2 0  9992
2 60209  97.2997 181.4204 0024637 107.4107 252.9828 15.26015457 22268
GRBBeta
1 60237U 24128C   24333.17112535  .00008942  00000-0  73360-3 0  9990
2 60237  61.9954  32.3866 0028820   7.9083 352.2455 14.99515718 21165
Curium One
1 60242U 24128H   24332.93772769  .00013960  00000-0  11212-2 0  9993
2 60242  61.9857  33.3062 0029098 358.9475   1.1548 14.99984648 21136
ROBUSTA-3A
1 60243U 24128J   24333.75967989  .00016470  00000-0  13297-2 0  9999
2 60243  61.9924  30.7429 0027318 356.6691   3.4212 14.99723191 21258
CatSat
1 60246U 24125J   24333.57659091  .00023092  00000-0  91935-3 0  9995
2 60246  97.2800 183.2497 0050222  59.9138 300.7065 15.24058937 20520
CosmoGirlSat
1 60953U 98067WT  24333.67008497  .00774501  26800-3  19388-2 0  9993
2 60953  51.6182 209.7729 0010845 212.2474 147.7872 15.95038477 14307
Sakura
1 60954U 98067WU  24331.73493809  .02223257  53765-2  20174-2 0  9997
2 60954  51.6124 217.8107 0010323 214.7181 145.3161 16.13092160 14021
CySat-1
1 61501U 98067WZ  24333.40847480  .00296564  00000-0  24611-2 0  9991
2 61501  51.6329 218.6045 0012380 210.1707 149.8578 15.68637963  7990
DORA
1 61502U 98067XA  24332.70883291  .05483889  11710-4  31917-2 0  9998
2 61502  51.5998 218.3610 0016594 207.4139 152.6004 16.17695191  7927
AO-123
1 99130U 24099A   24333.51783565  .00064425  00000-0  27016-2 0 00003
2 99130 097.3813 197.9452 0017922 153.5116 004.4393 15.23389487000019
